Time,TemperatureF,DewpointF,PressureIn,WindDirection,WindDirectionDegrees,WindSpeedMPH,WindSpeedGustMPH,Humidity,HourlyPrecipIn,Conditions,Clouds,dailyrainin,SolarRadiationWatts/m^2,SoftwareType,DateUTC
2013-01-07 00:03:00,33.0,28.0,-100.00,WNW,290,4.0,8.0,80,0.00,,,0.05,0.000000,,2013-01-07 05:03:00,
2013-01-07 00:33:00,33.0,27.0,-100.00,WNW,288,5.0,11.0,78,0.01,,,0.06,0.000000,,2013-01-07 05:33:00,
2013-01-07 00:43:00,33.0,27.0,-100.00,WNW,288,5.0,11.0,78,0.01,,,0.06,0.000000,,2013-01-07 05:43:00,
2013-01-07 00:53:00,33.0,27.0,-100.00,WNW,288,5.0,11.0,78,0.01,,,0.06,0.000000,,2013-01-07 05:53:00,
2013-01-07 01:02:00,33.0,27.0,-100.00,WNW,288,5.0,11.0,78,0.01,,,0.06,0.000000,,2013-01-07 06:02:00,
2013-01-07 01:32:00,33.0,28.0,-100.00,West,273,4.0,9.0,82,0.00,,,0.06,0.000000,,2013-01-07 06:32:00,
2013-01-07 01:42:00,33.0,28.0,-100.00,West,273,4.0,9.0,82,0.00,,,0.06,0.000000,,2013-01-07 06:42:00,
2013-01-07 01:52:00,33.0,28.0,-100.00,West,273,4.0,9.0,82,0.00,,,0.06,0.000000,,2013-01-07 06:52:00,
2013-01-07 02:02:00,33.0,28.0,-100.00,West,273,4.0,9.0,82,0.00,,,0.06,0.000000,,2013-01-07 07:02:00,
2013-01-07 02:33:00,33.0,28.0,-100.00,WNW,295,3.0,8.0,80,0.00,,,0.06,0.000000,,2013-01-07 07:33:00,
2013-01-07 02:43:00,33.0,28.0,-100.00,WNW,295,3.0,8.0,80,0.00,,,0.06,0.000000,,2013-01-07 07:43:00,
2013-01-07 02:53:00,33.0,28.0,-100.00,WNW,295,3.0,8.0,80,0.00,,,0.06,0.000000,,2013-01-07 07:53:00,
2013-01-07 03:03:00,33.0,28.0,-100.00,WNW,295,3.0,8.0,80,0.00,,,0.06,0.000000,,2013-01-07 08:03:00,
2013-01-07 03:33:00,33.0,28.0,-100.00,WNW,293,5.0,10.0,82,0.00,,,0.06,0.000000,,2013-01-07 08:33:00,
2013-01-07 03:43:00,33.0,28.0,-100.00,WNW,293,5.0,10.0,82,0.00,,,0.06,0.000000,,2013-01-07 08:43:00,
2013-01-07 03:53:00,33.0,28.0,-100.00,WNW,293,5.0,10.0,82,0.00,,,0.06,0.000000,,2013-01-07 08:53:00,
2013-01-07 04:02:00,33.0,28.0,-100.00,WNW,293,5.0,10.0,82,0.00,,,0.06,0.000000,,2013-01-07 09:02:00,
2013-01-07 04:32:00,32.0,27.0,-100.00,WNW,291,4.0,12.0,81,0.00,,,0.06,0.000000,,2013-01-07 09:32:00,
2013-01-07 04:42:00,32.0,27.0,-100.00,WNW,291,4.0,12.0,81,0.00,,,0.06,0.000000,,2013-01-07 09:42:00,
2013-01-07 04:53:00,32.0,27.0,-100.00,WNW,291,4.0,12.0,81,0.00,,,0.06,0.000000,,2013-01-07 09:53:00,
2013-01-07 05:02:00,32.0,27.0,-100.00,WNW,291,4.0,12.0,81,0.00,,,0.06,0.000000,,2013-01-07 10:02:00,
2013-01-07 05:33:00,32.0,28.0,-100.00,WNW,295,4.0,12.0,85,0.00,,,0.06,0.000000,,2013-01-07 10:33:00,
2013-01-07 05:43:00,32.0,28.0,-100.00,WNW,295,4.0,12.0,85,0.00,,,0.06,0.000000,,2013-01-07 10:43:00,
2013-01-07 05:52:00,32.0,28.0,-100.00,WNW,295,4.0,12.0,85,0.00,,,0.06,0.000000,,2013-01-07 10:52:00,
2013-01-07 06:02:00,32.0,28.0,-100.00,WNW,295,4.0,12.0,85,0.00,,,0.06,0.000000,,2013-01-07 11:02:00,
2013-01-07 06:33:00,32.0,28.0,-100.00,WNW,297,5.0,11.0,85,0.00,,,0.06,0.000000,,2013-01-07 11:33:00,
2013-01-07 06:43:00,32.0,28.0,-100.00,WNW,297,5.0,11.0,85,0.00,,,0.06,0.000000,,2013-01-07 11:43:00,
2013-01-07 06:53:00,32.0,28.0,-100.00,WNW,297,5.0,11.0,85,0.00,,,0.06,0.000000,,2013-01-07 11:53:00,
2013-01-07 07:03:00,32.0,28.0,-100.00,WNW,297,5.0,11.0,85,0.00,,,0.06,0.000000,,2013-01-07 12:03:00,
2013-01-07 07:33:00,32.0,28.0,-100.00,WNW,292,4.0,9.0,85,0.00,,,0.06,0.000000,,2013-01-07 12:33:00,
2013-01-07 07:43:00,32.0,28.0,-100.00,WNW,292,4.0,9.0,85,0.00,,,0.06,0.000000,,2013-01-07 12:43:00,
2013-01-07 07:53:00,32.0,28.0,-100.00,WNW,292,4.0,9.0,85,0.00,,,0.06,0.000000,,2013-01-07 12:53:00,
2013-01-07 08:03:00,32.0,28.0,-100.00,WNW,292,4.0,9.0,85,0.00,,,0.06,0.000000,,2013-01-07 13:03:00,
2013-01-07 08:33:00,32.0,28.0,-100.00,NW,313,3.0,8.0,86,0.00,,,0.06,4.000000,,2013-01-07 13:33:00,
2013-01-07 08:43:00,32.0,28.0,-100.00,NW,313,3.0,8.0,86,0.00,,,0.06,4.000000,,2013-01-07 13:43:00,
2013-01-07 08:53:00,32.0,28.0,-100.00,NW,313,3.0,8.0,86,0.00,,,0.06,4.000000,,2013-01-07 13:53:00,
2013-01-07 09:03:00,32.0,28.0,-100.00,NW,313,3.0,8.0,86,0.00,,,0.06,4.000000,,2013-01-07 14:03:00,
2013-01-07 09:33:00,33.0,29.0,-100.00,WNW,298,3.0,9.0,84,0.00,,,0.06,34.000000,,2013-01-07 14:33:00,
2013-01-07 09:43:00,33.0,29.0,-100.00,WNW,298,3.0,9.0,84,0.00,,,0.06,34.000000,,2013-01-07 14:43:00,
2013-01-07 09:53:00,33.0,29.0,-100.00,WNW,298,3.0,9.0,84,0.00,,,0.06,34.000000,,2013-01-07 14:53:00,
2013-01-07 10:03:00,33.0,29.0,-100.00,WNW,298,3.0,9.0,84,0.00,,,0.06,34.000000,,2013-01-07 15:03:00,
2013-01-07 10:33:00,35.0,29.0,-100.00,WNW,297,5.0,9.0,79,0.00,,,0.06,93.000000,,2013-01-07 15:33:00,
2013-01-07 10:43:00,35.0,29.0,-100.00,WNW,297,5.0,9.0,79,0.00,,,0.06,93.000000,,2013-01-07 15:43:00,
2013-01-07 10:53:00,35.0,29.0,-100.00,WNW,297,5.0,9.0,79,0.00,,,0.06,93.000000,,2013-01-07 15:53:00,
2013-01-07 11:03:00,35.0,29.0,-100.00,WNW,297,5.0,9.0,79,0.00,,,0.06,93.000000,,2013-01-07 16:03:00,
2013-01-07 11:33:00,35.0,28.0,-100.00,WNW,295,5.0,10.0,74,0.00,,,0.05,108.000000,,2013-01-07 16:33:00,
2013-01-07 11:43:00,35.0,28.0,-100.00,WNW,295,5.0,10.0,74,0.00,,,0.05,108.000000,,2013-01-07 16:43:00,
2013-01-07 11:53:00,35.0,28.0,-100.00,WNW,295,5.0,10.0,74,0.00,,,0.05,108.000000,,2013-01-07 16:53:00,
2013-01-07 12:03:00,35.0,28.0,-100.00,WNW,295,5.0,10.0,74,0.00,,,0.05,108.000000,,2013-01-07 17:03:00,
2013-01-07 12:33:00,36.0,25.0,-100.00,WNW,296,5.0,10.0,65,0.00,,,0.05,114.000000,,2013-01-07 17:33:00,
2013-01-07 12:43:00,36.0,25.0,-100.00,WNW,296,5.0,10.0,65,0.00,,,0.05,114.000000,,2013-01-07 17:43:00,
2013-01-07 12:53:00,36.0,25.0,-100.00,WNW,296,5.0,10.0,65,0.00,,,0.05,114.000000,,2013-01-07 17:53:00,
2013-01-07 13:03:00,36.0,25.0,-100.00,WNW,296,5.0,10.0,65,0.00,,,0.05,114.000000,,2013-01-07 18:03:00,
2013-01-07 13:33:00,36.0,23.0,-100.00,WNW,289,4.0,11.0,60,0.01,,,0.05,202.000000,,2013-01-07 18:33:00,
2013-01-07 13:43:00,36.0,23.0,-100.00,WNW,289,4.0,11.0,60,0.01,,,0.05,202.000000,,2013-01-07 18:43:00,
2013-01-07 13:53:00,36.0,23.0,-100.00,WNW,289,4.0,11.0,60,0.01,,,0.05,202.000000,,2013-01-07 18:53:00,
2013-01-07 14:03:00,36.0,23.0,-100.00,WNW,289,4.0,11.0,60,0.01,,,0.05,202.000000,,2013-01-07 19:03:00,
2013-01-07 14:33:00,35.0,23.0,-100.00,West,269,4.0,9.0,61,0.01,,,0.06,148.000000,,2013-01-07 19:33:00,
2013-01-07 14:43:00,35.0,23.0,-100.00,West,269,4.0,9.0,61,0.01,,,0.06,148.000000,,2013-01-07 19:43:00,
2013-01-07 14:53:00,35.0,23.0,-100.00,West,269,4.0,9.0,61,0.01,,,0.06,148.000000,,2013-01-07 19:53:00,
2013-01-07 15:03:00,35.0,23.0,-100.00,West,269,4.0,9.0,61,0.01,,,0.06,148.000000,,2013-01-07 20:03:00,
2013-01-07 15:33:00,36.0,21.0,-100.00,WNW,282,5.0,12.0,55,0.01,,,0.05,275.000000,,2013-01-07 20:33:00,
2013-01-07 15:43:00,36.0,21.0,-100.00,WNW,282,5.0,12.0,55,0.01,,,0.05,275.000000,,2013-01-07 20:43:00,
2013-01-07 15:53:00,36.0,21.0,-100.00,WNW,282,5.0,12.0,55,0.01,,,0.05,275.000000,,2013-01-07 20:53:00,
2013-01-07 16:03:00,36.0,21.0,-100.00,WNW,282,5.0,12.0,55,0.01,,,0.05,275.000000,,2013-01-07 21:03:00,
2013-01-07 16:33:00,32.0,20.0,-100.00,WSW,256,3.0,10.0,61,0.00,,,0.04,142.000000,,2013-01-07 21:33:00,
2013-01-07 16:43:00,32.0,20.0,-100.00,WSW,256,3.0,10.0,61,0.00,,,0.04,142.000000,,2013-01-07 21:43:00,
2013-01-07 16:53:00,32.0,20.0,-100.00,WSW,256,3.0,10.0,61,0.00,,,0.04,142.000000,,2013-01-07 21:53:00,
2013-01-07 17:03:00,32.0,20.0,-100.00,WSW,256,3.0,10.0,61,0.00,,,0.04,142.000000,,2013-01-07 22:03:00,
2013-01-07 17:33:00,28.0,19.0,-100.00,NW,304,2.0,10.0,69,0.00,,,0.04,14.000000,,2013-01-07 22:33:00,
2013-01-07 17:43:00,28.0,19.0,-100.00,NW,304,2.0,10.0,69,0.00,,,0.04,14.000000,,2013-01-07 22:43:00,
2013-01-07 17:53:00,28.0,19.0,-100.00,NW,304,2.0,10.0,69,0.00,,,0.04,14.000000,,2013-01-07 22:53:00,
2013-01-07 18:03:00,28.0,19.0,-100.00,NW,304,2.0,10.0,69,0.00,,,0.04,14.000000,,2013-01-07 23:03:00,
2013-01-07 18:33:00,26.0,20.0,-100.00,West,275,2.0,6.0,79,0.00,,,0.04,0.000000,,2013-01-07 23:33:00,
2013-01-07 18:43:00,26.0,20.0,-100.00,West,275,2.0,6.0,79,0.00,,,0.04,0.000000,,2013-01-07 23:43:00,
2013-01-07 18:53:00,26.0,20.0,-100.00,West,275,2.0,6.0,79,0.00,,,0.04,0.000000,,2013-01-07 23:53:00,
2013-01-07 19:03:00,26.0,20.0,-100.00,West,275,2.0,6.0,79,0.00,,,0.04,0.000000,,2013-01-08 00:03:00,
2013-01-07 19:33:00,26.0,22.0,-100.00,NNW,343,2.0,6.0,83,0.00,,,0.04,0.000000,,2013-01-08 00:33:00,
2013-01-07 19:43:00,26.0,22.0,-100.00,NNW,343,2.0,6.0,83,0.00,,,0.04,0.000000,,2013-01-08 00:43:00,
2013-01-07 19:53:00,26.0,22.0,-100.00,NNW,343,2.0,6.0,83,0.00,,,0.04,0.000000,,2013-01-08 00:53:00,
2013-01-07 20:03:00,26.0,22.0,-100.00,NNW,343,2.0,6.0,83,0.00,,,0.04,0.000000,,2013-01-08 01:03:00,
2013-01-07 20:33:00,24.0,20.0,-100.00,WNW,293,2.0,5.0,85,0.00,,,0.04,0.000000,,2013-01-08 01:33:00,
2013-01-07 20:42:00,24.0,20.0,-100.00,WNW,293,2.0,5.0,85,0.00,,,0.04,0.000000,,2013-01-08 01:42:00,
2013-01-07 20:53:00,24.0,20.0,-100.00,WNW,293,2.0,5.0,85,0.00,,,0.04,0.000000,,2013-01-08 01:53:00,
2013-01-07 21:02:00,24.0,20.0,-100.00,WNW,293,2.0,5.0,85,0.00,,,0.04,0.000000,,2013-01-08 02:02:00,
2013-01-07 21:33:00,25.0,21.0,-100.00,NNW,333,2.0,5.0,83,0.00,,,0.04,0.000000,,2013-01-08 02:33:00,
2013-01-07 21:43:00,25.0,21.0,-100.00,NNW,333,2.0,5.0,83,0.00,,,0.04,0.000000,,2013-01-08 02:43:00,
2013-01-07 21:53:00,25.0,21.0,-100.00,NNW,333,2.0,5.0,83,0.00,,,0.04,0.000000,,2013-01-08 02:53:00,
2013-01-07 22:03:00,25.0,21.0,-100.00,NNW,333,2.0,5.0,83,0.00,,,0.04,0.000000,,2013-01-08 03:03:00,
2013-01-07 22:33:00,24.0,20.0,-100.00,NNW,343,3.0,6.0,85,0.00,,,0.04,0.000000,,2013-01-08 03:33:00,
2013-01-07 22:43:00,24.0,20.0,-100.00,NNW,343,3.0,6.0,85,0.00,,,0.04,0.000000,,2013-01-08 03:43:00,
2013-01-07 22:53:00,24.0,20.0,-100.00,NNW,343,3.0,6.0,85,0.00,,,0.04,0.000000,,2013-01-08 03:53:00,
2013-01-07 23:02:00,24.0,20.0,-100.00,NNW,343,3.0,6.0,85,0.00,,,0.04,0.000000,,2013-01-08 04:02:00,
2013-01-07 23:32:00,23.0,20.0,-100.00,North,352,2.0,3.0,89,0.00,,,0.04,0.000000,,2013-01-08 04:32:00,
2013-01-07 23:43:00,23.0,20.0,-100.00,North,352,2.0,3.0,89,0.00,,,0.04,0.000000,,2013-01-08 04:43:00,
2013-01-07 23:52:00,23.0,20.0,-100.00,North,352,2.0,3.0,89,0.00,,,0.04,0.000000,,2013-01-08 04:52:00,